Location: Cleveland
(41.4990°N, 81.6960°W)
Time: 21:10:41
(UTC-04:00)

ISS - Pass Details

Date: 30 September 2021
Orbit: 417 x 423 km, 51.6° (Epoch: 24 October)

Event Time Altitude Azimuth Distance (km) Brightness Sun altitude
Rises 21:15:48 0° 307° (NW) 2,365 1.2 -24.1°
Reaches altitude 10° 21:17:56 10° 312° (NW) 1,500 -0.1 -24.5°
Enters shadow 21:19:47 28° 327° (NNW) 811 -1.9 -24.8°
